Weather reports worldwide

Advertisment
Clemson, sc, United States of America (2074331): temperature & dewpoint: 17.07.2019 19:00:00 - 23.07.2019 19:00:00 (EDT)Clemson, sc, United States of America (2074331): wind speed & gusts: 17.07.2019 19:00:00 - 23.07.2019 19:00:00 (EDT)Clemson, sc, United States of America (2074331): wind direction: 17.07.2019 19:00:00 - 23.07.2019 19:00:00 (EDT)Clemson, sc, United States of America (2074331): reduced air pressure: 17.07.2019 19:00:00 - 23.07.2019 19:00:00 (EDT)Clemson, sc, United States of America (2074331): visibility: 17.07.2019 19:00:00 - 23.07.2019 19:00:00 (EDT)Clemson, sc, United States of America (2074331): precipitation: 17.07.2019 19:00:00 - 23.07.2019 19:00:00 (EDT)
Date & Time tt [°C] td [°C] ff [km/h] ff [kn] fx [km/h] fx [kn] dd ppp [hPa] vv [km] rr [mm]
23.07.2019 19:00:00 24,4 16,1 21 11 - - NE 1012,3 16 -
23.07.2019 18:00:00 26,1 17,8 21 11 - - ENE 1011,4 16 -
23.07.2019 17:00:00 26,7 20,6 16 9 - - ENE 1010,4 16 -
23.07.2019 16:00:00 25,6 18,9 11 6 - - ENE 1010,6 16 -
23.07.2019 15:00:00 24,4 20,0 13 7 - - ENE 1011,0 16 -
23.07.2019 14:00:00 25,0 21,1 9 5 - - - 1010,1 16 -
23.07.2019 13:00:00 24,4 22,8 8 4 - - - 1010,3 16 0,0
23.07.2019 12:00:00 23,9 22,8 11 6 - - WSW 1011,5 16 0,0
23.07.2019 11:00:00 23,3 22,8 5 3 - - - 1011,6 8 0,3
23.07.2019 10:00:00 22,8 22,2 8 4 - - SW 1011,5 16 0,3
23.07.2019 09:00:00 22,8 22,2 9 5 - - WSW 1011,8 16 0,0
23.07.2019 08:00:00 22,2 21,7 8 4 - - WSW 1011,6 16 -
23.07.2019 07:00:00 21,7 21,7 0 0 - - N 1011,2 16 0,0
23.07.2019 06:00:00 22,2 21,7 0 0 - - N 1011,0 15 1,3
23.07.2019 05:00:00 22,2 21,7 5 3 - - SSW 1011,4 13 0,3
23.07.2019 04:00:00 22,8 21,7 5 3 - - WSW 1011,5 16 0,5
23.07.2019 03:00:00 22,2 22,2 0 0 - - N 1011,7 8 1,0
23.07.2019 02:00:00 22,8 22,8 0 0 - - N 1012,5 16 0,3
23.07.2019 01:00:00 22,8 21,7 0 0 - - N 1012,9 16 0,8
23.07.2019 00:00:00 22,8 21,7 9 5 - - NW 1013,5 4,8 0,8
22.07.2019 23:00:00 23,9 21,1 8 4 - - NW 1013,5 16 -
22.07.2019 22:00:00 23,9 21,7 5 3 - - E 1013,2 16 0,0
22.07.2019 21:00:00 25,0 22,2 13 7 - - WNW 1013,0 16 0,0
22.07.2019 20:00:00 27,8 21,1 5 3 - - SW 1012,7 16 0,0
22.07.2019 19:00:00 30,0 20,6 8 4 - - - 1012,5 16 -
22.07.2019 18:00:00 30,6 21,7 5 3 - - - 1012,5 16 -
22.07.2019 17:00:00 30,0 21,1 11 6 - - WNW 1012,9 16 -
22.07.2019 16:00:00 31,1 20,6 13 7 - - WSW 1013,3 16 -
22.07.2019 15:00:00 30,6 20,0 15 8 - - WSW 1014,1 16 -
22.07.2019 14:00:00 30,0 21,1 16 9 - - WSW 1014,7 16 -
22.07.2019 13:00:00 30,0 21,1 15 8 - - SW 1015,1 16 -
22.07.2019 12:00:00 30,0 21,7 16 9 - - WSW 1015,7 16 -
22.07.2019 11:00:00 27,8 22,2 9 5 - - - 1015,9 16 -
22.07.2019 10:00:00 26,1 22,2 9 5 - - W 1016,2 16 -
22.07.2019 09:00:00 24,4 21,7 9 5 - - W 1016,3 16 -
22.07.2019 08:00:00 22,8 21,1 5 3 - - WSW 1016,0 16 -
22.07.2019 07:00:00 22,2 20,6 5 3 - - WSW 1015,6 16 -
22.07.2019 06:00:00 22,2 20,6 5 3 - - - 1014,9 16 -
22.07.2019 05:00:00 22,8 20,6 5 3 - - - 1014,5 16 -
22.07.2019 04:00:00 22,8 20,6 5 3 - - WSW 1014,7 16 -
22.07.2019 03:00:00 23,3 20,6 8 4 - - W 1014,9 16 -
22.07.2019 02:00:00 23,9 20,6 8 4 - - W 1015,6 16 -
22.07.2019 01:00:00 24,4 20,6 8 4 - - W 1015,9 16 -
22.07.2019 00:00:00 25,0 21,1 8 4 - - WSW 1016,1 16 -
21.07.2019 23:00:00 26,1 20,6 5 3 - - SW 1016,1 16 -
21.07.2019 22:00:00 26,7 20,6 0 0 - - N 1015,8 16 -
21.07.2019 21:00:00 27,8 20,6 5 3 - - - 1015,4 16 -
21.07.2019 20:00:00 28,3 21,1 5 3 - - SW 1015,4 16 -
21.07.2019 19:00:00 30,0 21,1 11 6 - - - 1014,9 16 -
21.07.2019 18:00:00 30,6 21,1 13 7 - - WSW 1015,0 16 -
21.07.2019 17:00:00 31,1 20,6 15 8 - - WSW 1015,3 16 -
21.07.2019 16:00:00 31,1 21,1 15 8 - - SW 1015,5 16 -
21.07.2019 15:00:00 30,6 21,1 18 10 - - WSW 1016,3 16 -
21.07.2019 14:00:00 30,6 21,7 11 6 - - W 1016,9 16 -
21.07.2019 13:00:00 29,4 21,7 15 8 - - WSW 1017,3 16 -
21.07.2019 12:00:00 28,9 22,2 11 6 - - W 1017,6 16 -
21.07.2019 11:00:00 27,8 22,2 8 4 - - - 1017,5 16 -
21.07.2019 10:00:00 25,6 22,8 13 7 - - W 1017,7 16 -
21.07.2019 09:00:00 23,9 21,7 15 8 - - W 1017,8 16 -
21.07.2019 08:00:00 22,8 21,7 11 6 - - W 1017,3 16 -
21.07.2019 07:00:00 21,7 21,1 5 3 - - SSW 1016,9 16 -
21.07.2019 06:00:00 21,7 21,7 5 3 - - WNW 1016,6 15 -
21.07.2019 05:00:00 21,7 21,1 0 0 - - N 1016,3 15 -
21.07.2019 04:00:00 21,7 21,1 0 0 - - N 1015,7 16 -
21.07.2019 03:00:00 22,8 21,1 8 4 - - W 1015,9 16 -
21.07.2019 02:00:00 21,7 21,1 0 0 - - N 1016,0 16 -
21.07.2019 01:00:00 22,8 21,7 0 0 - - N 1017,2 16 -
21.07.2019 00:00:00 23,3 22,2 5 3 - - NW 1017,4 16 -
20.07.2019 23:00:00 23,9 22,2 9 5 - - W 1017,2 16 0,3
20.07.2019 22:00:00 26,7 22,8 0 0 - - N 1016,5 16 -
20.07.2019 21:00:00 27,2 23,3 0 0 - - N 1015,9 16 -
20.07.2019 20:00:00 28,3 22,8 0 0 - - N 1015,3 16 -
20.07.2019 19:00:00 29,4 21,7 0 0 - - N 1015,5 16 -
20.07.2019 18:00:00 29,4 22,8 9 5 - - S 1015,4 16 -
20.07.2019 17:00:00 30,0 23,3 9 5 - - SE 1015,9 16 -
20.07.2019 16:00:00 28,9 23,3 9 5 - - - 1016,6 16 -
20.07.2019 15:00:00 28,9 22,2 8 4 - - - 1016,7 16 -
20.07.2019 14:00:00 27,8 22,8 11 6 - - - 1017,4 16 -
20.07.2019 13:00:00 26,7 22,8 9 5 - - - 1017,9 16 -
20.07.2019 12:00:00 26,7 22,8 9 5 - - - 1017,8 16 -
20.07.2019 11:00:00 25,6 22,2 0 0 - - N 1018,0 16 -
20.07.2019 10:00:00 25,0 22,8 0 0 - - N 1018,2 16 -
20.07.2019 09:00:00 24,4 22,2 0 0 - - N 1018,2 16 -
20.07.2019 08:00:00 23,3 22,2 0 0 - - N 1018,0 15 -
20.07.2019 07:00:00 23,3 22,8 5 3 - - W 1017,4 13 -
20.07.2019 06:00:00 23,3 22,8 8 4 - - WSW 1016,4 16 -
20.07.2019 05:00:00 23,3 22,8 0 0 - - N 1015,9 16 -
20.07.2019 04:00:00 23,3 22,8 8 4 - - NE 1015,7 16 -
20.07.2019 03:00:00 22,8 22,2 0 0 - - N 1016,1 16 -
20.07.2019 02:00:00 22,8 22,2 5 3 - - W 1016,8 16 -
20.07.2019 01:00:00 22,8 22,2 8 4 - - - 1017,3 16 -
20.07.2019 00:00:00 23,3 22,2 5 3 - - SW 1017,7 16 -
19.07.2019 23:00:00 23,9 22,2 8 4 - - - 1017,3 16 -
19.07.2019 22:00:00 23,9 21,7 0 0 - - N 1017,0 16 -
19.07.2019 21:00:00 24,4 20,6 5 3 - - - 1016,1 16 0,0
19.07.2019 20:00:00 25,6 21,1 18 10 - - W 1015,9 16 -
19.07.2019 19:00:00 30,0 22,2 8 4 - - SSE 1015,5 16 -
19.07.2019 18:00:00 32,8 21,7 5 3 - - - 1015,0 16 -
19.07.2019 17:00:00 32,8 22,2 9 5 - - WNW 1015,3 16 -
19.07.2019 16:00:00 32,2 21,7 8 4 - - - 1015,8 16 -
19.07.2019 15:00:00 32,2 21,7 8 4 - - WNW 1016,4 16 -
19.07.2019 14:00:00 31,1 21,7 5 3 - - SW 1016,9 16 -
19.07.2019 13:00:00 31,1 22,2 5 3 - - - 1017,9 16 -
19.07.2019 12:00:00 29,4 21,7 0 0 - - N 1018,1 16 -
19.07.2019 11:00:00 30,0 22,2 0 0 - - N 1018,2 16 -
19.07.2019 10:00:00 27,8 22,2 0 0 - - N 1018,3 16 -
19.07.2019 09:00:00 25,6 21,7 0 0 - - N 1017,8 16 -
19.07.2019 08:00:00 24,4 21,1 11 6 - - W 1017,0 16 -
19.07.2019 07:00:00 22,8 20,6 13 7 - - W 1016,5 16 -
19.07.2019 06:00:00 21,7 20,6 5 3 - - W 1016,0 16 -
19.07.2019 05:00:00 22,2 21,1 0 0 - - N 1015,8 16 -
19.07.2019 04:00:00 22,8 21,1 5 3 - - WSW 1015,5 16 -
19.07.2019 03:00:00 23,3 21,1 11 6 - - W 1015,7 16 -
19.07.2019 02:00:00 23,3 21,7 16 9 - - W 1015,9 16 -
19.07.2019 01:00:00 23,9 22,2 9 5 - - WSW 1016,3 16 -
19.07.2019 00:00:00 24,4 22,2 11 6 - - WSW 1016,3 16 -
18.07.2019 23:00:00 25,0 22,2 11 6 - - WSW 1016,0 16 -
18.07.2019 22:00:00 25,6 22,2 9 5 - - W 1015,7 16 -
18.07.2019 21:00:00 26,1 22,2 13 7 - - WSW 1015,4 16 -
18.07.2019 20:00:00 28,3 23,9 15 8 - - W 1015,1 16 -
18.07.2019 19:00:00 28,9 25,0 11 6 - - W 1014,7 16 -
18.07.2019 18:00:00 27,2 24,4 5 3 - - SW 1014,7 16 -
18.07.2019 17:00:00 26,7 23,3 0 0 - - N 1015,4 16 -
18.07.2019 16:00:00 25,6 22,8 8 4 - - - 1015,7 16 0,0
18.07.2019 15:00:00 23,9 22,2 5 3 52 28 E 1016,9 16 0,0
18.07.2019 14:00:00 23,9 21,1 41 22 52 28 W 1016,2 2,8 1,5
18.07.2019 13:00:00 30,6 24,4 11 6 - - WNW 1016,4 16 -
18.07.2019 12:00:00 29,4 23,3 11 6 - - WNW 1016,9 16 -
18.07.2019 11:00:00 28,9 22,8 11 6 - - WNW 1016,8 16 -
18.07.2019 10:00:00 27,8 23,3 9 5 - - W 1017,0 16 -
18.07.2019 09:00:00 25,0 22,2 8 4 - - WNW 1017,1 16 -
18.07.2019 08:00:00 23,3 22,2 5 3 - - - 1016,8 16 -
18.07.2019 07:00:00 22,2 21,7 13 7 - - W 1016,6 16 -
18.07.2019 06:00:00 22,2 21,1 11 6 - - WSW 1016,3 16 -
18.07.2019 05:00:00 22,2 21,7 8 4 - - WSW 1015,9 16 -
18.07.2019 04:00:00 22,2 21,7 0 0 - - N 1016,1 16 -
18.07.2019 03:00:00 22,2 22,2 5 3 - - WNW 1016,3 16 -
18.07.2019 02:00:00 23,3 22,2 11 6 - - W 1016,6 16 -
18.07.2019 01:00:00 23,3 22,8 15 8 - - W 1017,0 16 -
18.07.2019 00:00:00 23,9 22,8 16 9 - - W 1017,3 16 -
17.07.2019 23:00:00 23,9 23,3 11 6 - - WSW 1017,4 16 -
17.07.2019 22:00:00 23,9 22,8 11 6 - - WSW 1017,1 16 -
17.07.2019 21:00:00 23,9 22,8 0 0 - - N 1016,7 16 -
17.07.2019 20:00:00 23,3 22,2 5 3 - - - 1016,2 16 -
17.07.2019 19:00:00 23,9 22,8 5 3 - - SW 1016,9 16 -

tt = temperature
td = dewpoint
ff = wind speed
fx = gusts
dd = wind direction
ppp = reduced air pressure
vv = visibility
rr = precipitation

Next stations